• In Austria
  • List of Countries
  • For 7 days
  • Water Temperature
  • Satellite Maps
  • Weather Map
  • News
  • Weather Widgets
  • user-avatar
    Login

    Hourly Weather Heidelberg

    Today, 26 September, Wednesday

    Time Temperature Precipitation Wind Pressure Humidity
    00:00 +7°C° 0 mm 2 mps 747 mmHg 61%
    01:00 +6°C° 0 mm 2 mps 747 mmHg 62%
    02:00 +6°C° 0 mm 2 mps 747 mmHg 63%
    03:00 +5°C° 0 mm 2 mps 747 mmHg 64%
    04:00 +5°C° 0 mm 2 mps 746 mmHg 65%
    05:00 +5°C° 0 mm 2 mps 746 mmHg 65%
    06:00 +5°C° 0 mm 2 mps 746 mmHg 66%
    07:00 +6°C° 0 mm 1 mps 746 mmHg 66%
    08:00 +8°C° 0 mm 1 mps 746 mmHg 58%
    09:00 +10°C° 0 mm 1 mps 746 mmHg 51%
    10:00 +12°C° 0 mm 1 mps 746 mmHg 43%
    11:00 +14°C° 0 mm 1 mps 746 mmHg 38%
    12:00 +16°C° 0 mm 1 mps 746 mmHg 34%
    13:00 +20°C° 0 mm 1 mps 746 mmHg 29%
    14:00 +18°C° 0 mm 0 mps 746 mmHg 29%
    15:00 +18°C° 0 mm 0 mps 745 mmHg 30%
    16:00 +18°C° 0 mm 0 mps 745 mmHg 30%
    17:00 +16°C° 0 mm 0 mps 745 mmHg 34%
    18:00 +14°C° 0 mm 0 mps 745 mmHg 38%
    19:00 +12°C° 0 mm 0 mps 744 mmHg 42%
    20:00 +11°C° 0 mm 0 mps 745 mmHg 43%
    21:00 +11°C° 0 mm 0 mps 745 mmHg 44%
    22:00 +10°C° 0 mm 0 mps 745 mmHg 45%
    23:00 +10°C° 0 mm 0 mps 745 mmHg 46%

    Tomorrow, 27 September, Thursday

    Time Temperature Precipitation Wind Pressure Humidity
    00:00 +10°C° 0 mm 0 mps 745 mmHg 47%
    01:00 +9°C° 0 mm 0 mps 745 mmHg 48%
    02:00 +9°C° 0 mm 0 mps 745 mmHg 50%
    03:00 +9°C° 0 mm 0 mps 744 mmHg 51%
    04:00 +9°C° 0 mm 0 mps 744 mmHg 52%
    05:00 +9°C° 0 mm 0 mps 744 mmHg 53%
    06:00 +10°C° 0 mm 1 mps 744 mmHg 54%
    07:00 +10°C° 0 mm 1 mps 744 mmHg 55%
    08:00 +12°C° 0 mm 1 mps 744 mmHg 50%
    09:00 +15°C° 0 mm 1 mps 744 mmHg 45%
    10:00 +18°C° 0 mm 1 mps 744 mmHg 40%
    11:00 +20°C° 0 mm 1 mps 743 mmHg 38%
    12:00 +21°C° 0 mm 1 mps 743 mmHg 36%
    13:00 +23°C° 0 mm 1 mps 742 mmHg 33%
    14:00 +23°C° 0 mm 1 mps 742 mmHg 35%
    15:00 +23°C° 0 mm 2 mps 741 mmHg 37%
    16:00 +23°C° 0 mm 2 mps 741 mmHg 38%
    17:00 +21°C° 0 mm 1 mps 740 mmHg 45%
    18:00 +19°C° 0 mm 1 mps 740 mmHg 52%
    19:00 +16°C° 0 mm 1 mps 739 mmHg 58%
    20:00 +15°C° 0 mm 1 mps 739 mmHg 61%
    21:00 +15°C° 0 mm 1 mps 739 mmHg 64%
    22:00 +14°C° 0 mm 1 mps 739 mmHg 67%
    23:00 +13°C° 0 mm 1 mps 739 mmHg 70%

    Day after tomorrow, 28 September, Friday

    Time Temperature Precipitation Wind Pressure Humidity
    00:00 +13°C° 0 mm 1 mps 739 mmHg 72%
    01:00 +12°C° 0 mm 1 mps 739 mmHg 75%
    02:00 +12°C° 0 mm 1 mps 738 mmHg 77%
    03:00 +12°C° 0 mm 1 mps 738 mmHg 78%
    04:00 +11°C° 0 mm 1 mps 738 mmHg 80%
    05:00 +11°C° 0 mm 1 mps 738 mmHg 80%
    06:00 +11°C° 0 mm 1 mps 738 mmHg 80%
    07:00 +10°C° 0 mm 0 mps 738 mmHg 80%
    08:00 +13°C° 0 mm 1 mps 738 mmHg 71%
    09:00 +15°C° 0 mm 1 mps 738 mmHg 63%
    10:00 +18°C° 0 mm 1 mps 738 mmHg 54%
    11:00 +19°C° 0 mm 1 mps 738 mmHg 50%
    12:00 +19°C° 0 mm 2 mps 738 mmHg 46%
    13:00 +20°C° 0 mm 2 mps 737 mmHg 42%
    14:00 +19°C° 0 mm 2 mps 737 mmHg 44%
    15:00 +19°C° 0 mm 3 mps 737 mmHg 46%
    16:00 +19°C° 0 mm 3 mps 736 mmHg 48%
    17:00 +17°C° 0 mm 3 mps 737 mmHg 55%
    18:00 +16°C° 0 mm 3 mps 737 mmHg 63%
    19:00 +13°C° 0 mm 4 mps 737 mmHg 70%
    20:00 +12°C° 0 mm 4 mps 737 mmHg 72%
    21:00 +11°C° 0 mm 4 mps 738 mmHg 73%
    22:00 +11°C° 0 mm 4 mps 738 mmHg 74%
    23:00 +10°C° 0 mm 3 mps 738 mmHg 74%

    29 September, Saturday

    Time Temperature Precipitation Wind Pressure Humidity
    00:00 +9°C° 0 mm 3 mps 738 mmHg 73%
    01:00 +9°C° 0 mm 3 mps 738 mmHg 72%
    02:00 +8°C° 0 mm 3 mps 739 mmHg 74%
    03:00 +8°C° 0 mm 3 mps 739 mmHg 75%
    04:00 +7°C° 0 mm 3 mps 739 mmHg 76%
    05:00 +7°C° 0 mm 3 mps 739 mmHg 77%
    06:00 +7°C° 0 mm 3 mps 740 mmHg 78%
    07:00 +5°C° 0 mm 3 mps 740 mmHg 79%
    08:00 +8°C° 0 mm 3 mps 740 mmHg 72%
    09:00 +9°C° 0 mm 3 mps 740 mmHg 64%
    10:00 +11°C° 0 mm 4 mps 741 mmHg 57%
    11:00 +12°C° 0 mm 4 mps 741 mmHg 52%
    12:00 +13°C° 0 mm 4 mps 740 mmHg 47%
    13:00 +14°C° 0 mm 4 mps 740 mmHg 42%
    14:00 +14°C° 0 mm 4 mps 740 mmHg 42%
    15:00 +13°C° 0 mm 4 mps 740 mmHg 41%
    16:00 +13°C° 0 mm 4 mps 740 mmHg 40%
    17:00 +12°C° 0 mm 4 mps 740 mmHg 44%
    18:00 +11°C° 0 mm 3 mps 740 mmHg 48%
    19:00 +9°C° 0 mm 3 mps 740 mmHg 52%
    20:00 +9°C° 0 mm 3 mps 740 mmHg 54%
    21:00 +8°C° 0 mm 3 mps 740 mmHg 55%
    22:00 +7°C° 0 mm 3 mps 740 mmHg 57%
    23:00 +7°C° 0 mm 3 mps 739 mmHg 60%

    30 September, Sunday

    Time Temperature Precipitation Wind Pressure Humidity
    00:00 +5°C° 0 mm 3 mps 739 mmHg 62%
    01:00 +5°C° 0 mm 3 mps 739 mmHg 65%
    02:00 +5°C° 0 mm 3 mps 738 mmHg 66%
    03:00 +5°C° 0 mm 2 mps 738 mmHg 68%
    04:00 +5°C° 0 mm 2 mps 738 mmHg 70%
    05:00 +5°C° 0 mm 2 mps 738 mmHg 70%
    06:00 +4°C° 0 mm 2 mps 737 mmHg 71%
    07:00 +4°C° 0 mm 2 mps 737 mmHg 72%
    08:00 +5°C° 0 mm 3 mps 737 mmHg 65%
    09:00 +8°C° 0 mm 3 mps 737 mmHg 59%
    10:00 +10°C° 0 mm 3 mps 737 mmHg 53%
    11:00 +12°C° 0 mm 3 mps 737 mmHg 48%
    12:00 +13°C° 0 mm 3 mps 736 mmHg 44%
    13:00 +15°C° 0 mm 4 mps 736 mmHg 40%
    14:00 +16°C° 0 mm 3 mps 735 mmHg 40%
    15:00 +16°C° 0 mm 3 mps 735 mmHg 39%
    16:00 +16°C° 0 mm 3 mps 735 mmHg 39%
    17:00 +13°C° 0 mm 3 mps 735 mmHg 44%
    18:00 +13°C° 0 mm 2 mps 735 mmHg 48%
    19:00 +10°C° 0 mm 2 mps 735 mmHg 53%
    20:00 +9°C° 0 mm 2 mps 735 mmHg 56%
    21:00 +9°C° 0 mm 2 mps 735 mmHg 59%
    22:00 +8°C° 0 mm 2 mps 735 mmHg 61%
    23:00 +8°C° 0 mm 1 mps 735 mmHg 64%

    1 October, Monday

    Time Temperature Precipitation Wind Pressure Humidity
    00:00 +8°C° 0 mm 1 mps 735 mmHg 67%
    01:00 +7°C° 0 mm 1 mps 735 mmHg 70%
    02:00 +7°C° 0 mm 1 mps 735 mmHg 72%
    03:00 +7°C° 0 mm 1 mps 735 mmHg 73%
    04:00 +6°C° 0 mm 1 mps 735 mmHg 75%
    05:00 +6°C° 0 mm 1 mps 735 mmHg 76%
    06:00 +6°C° 0 mm 1 mps 735 mmHg 76%
    07:00 +6°C° 0 mm 1 mps 736 mmHg 76%
    08:00 +8°C° 0 mm 1 mps 736 mmHg 68%
    09:00 +9°C° 0 mm 2 mps 736 mmHg 60%
    10:00 +12°C° 0 mm 2 mps 737 mmHg 52%
    11:00 +13°C° 0 mm 2 mps 737 mmHg 48%
    12:00 +14°C° 0 mm 2 mps 737 mmHg 45%
    13:00 +14°C° 0 mm 3 mps 737 mmHg 41%
    14:00 +14°C° 0 mm 3 mps 737 mmHg 44%
    15:00 +14°C° 0 mm 3 mps 737 mmHg 46%
    16:00 +14°C° 0 mm 3 mps 737 mmHg 48%
    17:00 +12°C° 0 mm 3 mps 738 mmHg 55%
    18:00 +11°C° 0 mm 3 mps 738 mmHg 62%
    19:00 +9°C° 0 mm 2 mps 739 mmHg 69%
    20:00 +9°C° 0 mm 2 mps 739 mmHg 70%
    21:00 +8°C° 0 mm 2 mps 740 mmHg 72%
    22:00 +8°C° 0 mm 2 mps 740 mmHg 73%
    23:00 +7°C° 0 mm 2 mps 741 mmHg 73%
    Show more